Wind_Speed
16 16 15 15 15 13 9 8 7 7 5 5 5 5 5 5 5 5 5 6 7 6 6 5 5 6 6 5 5 5 6 6 6 5 6 6 6 6 6 6 6 6 6 6 5 5 4 4 3
16 14 15 15 14 10 8 7 7 6 6 5 4 4 4 4 4 4 5 6 6 7 7 6 5 5 5 5 4 5 5 5 5 4 5 5 5 5 5 5 5 5 5 5 5 4 4 3 3
16 14 15 15 11 9 7 6 6 6 6 5 4 4 4 4 4 4 4 5 6 7 7 7 5 5 4 4 3 4 4 4 4 3 3 3 4 5 5 5 4 5 5 4 4 3 3 3 2
16 16 17 15 11 9 8 7 7 6 6 5 4 4 4 4 4 3 3 4 4 5 6 6 5 4 4 3 2 2 3 3 3 3 3 2 2 4 4 4 3 4 4 3 3 3 3 3 2
17 19 17 14 11 10 9 8 8 6 5 5 5 5 4 4 4 3 3 3 3 4 4 4 4 4 3 2 1 1 2 3 2 2 2 2 2 2 2 2 2 2 3 3 2 2 2 2 2
18 18 16 11 10 10 10 9 8 7 6 5 5 5 5 5 4 3 2 2 2 3 3 3 3 3 2 1 1 0 1 2 2 2 1 1 1 2 2 1 1 1 2 2 2 2 2 2 2
15 15 13 10 9 9 9 9 9 9 7 6 6 5 5 5 4 3 3 3 3 2 2 2 2 3 2 2 1 0 1 2 2 2 1 1 1 1 2 2 2 1 2 2 2 2 3 3 3
12 12 11 8 8 9 10 9 9 9 7 7 7 6 7 6 4 4 4 4 3 3 2 2 2 3 3 2 2 1 2 2 2 2 2 2 2 2 2 2 3 3 3 3 4 4 3 3 3
11 11 8 7 7 9 10 9 9 9 9 7 7 8 8 7 5 5 5 5 4 4 4 4 3 4 4 3 3 3 2 2 2 3 3 3 3 3 3 3 3 3 4 4 5 5 4 4 3
10 9 7 6 6 7 8 9 10 9 9 8 8 8 8 7 7 6 6 5 5 5 4 5 5 6 6 5 5 4 3 3 3 3 4 4 4 4 3 4 4 4 5 5 6 5 5 4 4
8 6 5 6 6 7 8 8 8 8 8 8 9 8 8 8 8 7 7 6 5 5 5 6 6 7 7 7 7 5 5 4 4 4 4 5 5 5 4 4 4 4 5 6 6 6 6 5 5
7 6 6 6 7 8 8 7 7 7 8 8 8 8 8 7 7 7 7 7 6 6 6 6 7 8 8 8 7 6 6 5 5 6 6 6 6 6 5 5 6 6 6 7 7 7 6 5 5
4 5 5 6 6 7 7 8 7 7 8 9 9 9 8 8 7 7 7 7 7 6 6 7 8 8 9 8 7 8 7 6 6 6 6 6 7 6 6 7 7 7 7 7 7 7 6 6 7
3 3 4 7 7 8 9 7 7 9 9 9 9 9 9 9 8 8 8 8 7 7 7 7 9 9 9 9 8 8 7 7 7 7 6 7 7 7 7 7 7 7 7 8 8 8 8 8 7
2 2 5 7 8 8 7 7 8 9 10 10 10 10 9 8 8 8 8 8 8 8 8 9 9 10 10 9 9 8 7 7 7 6 6 6 6 6 7 7 7 7 7 8 7 7 8 9 8
3 4 5 6 8 9 8 9 10 11 11 11 10 10 9 9 8 8 8 9 9 9 9 9 9 9 9 9 9 8 8 8 7 6 6 6 6 7 7 7 8 9 8 8 7 7 9 9 9
2 3 3 5 7 8 9 10 11 10 9 10 10 10 10 10 9 9 9 9 9 9 9 9 9 9 9 9 8 8 8 8 7 7 7 7 7 7 7 8 8 8 8 9 8 7 8 8 9
2 4 3 4 7 8 8 9 11 11 10 9 10 10 9 9 9 9 8 9 9 10 10 10 10 9 9 9 9 8 8 8 7 7 7 7 7 7 8 8 8 8 8 9 9 7 7 8 8
3 4 4 5 7 8 8 9 10 12 12 11 8 9 9 10 10 9 9 9 10 10 10 10 11 10 10 10 9 9 8 8 7 8 8 8 8 8 9 10 10 10 10 9 8 8 8 8 8
7 6 5 6 8 8 9 9 10 11 13 12 10 10 10 10 10 9 9 9 10 11 11 12 12 11 10 10 10 9 8 8 8 8 9 9 9 9 10 11 12 12 10 10 9 9 9 9 9
9 8 8 8 9 9 10 9 10 11 14 13 10 10 10 10 11 11 11 11 11 11 12 12 13 12 11 11 11 10 10 9 9 9 9 9 9 9 10 12 12 11 10 10 10 10 10 10 10
9 9 10 11 10 9 9 11 13 12 12 13 12 10 11 11 12 12 12 12 13 13 13 13 13 13 13 12 12 11 11 10 10 10 11 11 11 11 11 12 13 12 12 11 11 12 11 10 11
12 11 12 12 11 9 8 11 12 13 13 13 13 11 10 11 12 12 12 13 13 13 14 13 13 14 14 13 13 11 11 11 11 11 12 12 12 13 12 12 12 13 12 12 12 13 13 13 13
14 12 10 9 9 11 10 11 13 13 12 12 13 13 12 12 12 12 12 13 13 14 14 14 14 15 15 15 14 13 13 13 13 13 13 13 13 14 14 14 14 14 14 14 14 14 14 14 14
14 13 11 11 11 12 9 11 14 13 13 13 13 14 14 14 14 14 13 14 14 14 14 15 15 15 15 15 14 14 13 13 14 14 14 15 15 15 15 16 16 15 15 15 16 16 16 16 16
17 15 13 13 12 10 11 13 14 14 15 15 15 15 16 16 16 15 15 15 14 14 14 15 15 16 16 15 15 14 14 15 15 15 15 16 16 16 17 17 17 16 16 17 17 17 17 17 18
18 17 15 16 14 14 13 13 15 15 16 17 17 17 17 17 16 16 17 16 15 15 15 15 15 16 16 15 15 15 16 16 16 16 16 17 17 17 18 18 18 18 17 18 20 20 19 19 19
19 17 16 16 17 17 14 14 17 19 19 19 20 20 19 18 17 17 17 18 17 16 16 16 16 16 16 16 16 17 17 17 18 18 18 18 18 19 19 19 19 19 19 19 21 21 21 20 20
19 20 19 19 18 18 17 17 18 21 21 20 20 21 20 20 19 18 18 18 18 18 18 17 17 17 18 17 18 18 18 19 19 19 19 19 20 21 21 22 22 21 21 21 21 22 22 22 22
21 21 21 21 22 21 20 20 19 19 21 22 22 22 22 21 21 20 20 19 19 19 19 19 19 19 19 19 19 19 20 21 21 22 22 22 22 23 23 24 23 23 23 23 22 22 22 22 21
Wind_Direction
81 83 80 74 65 59 54 55 54 57 69 74 73 67 73 73 76 66 68 70 70 69 70 90 107 118 112 115 125 128 135 134 130 126 124 124 126 129 126 127 130 136 131 124 121 119 118 112 95
82 83 75 67 59 52 50 53 52 54 56 58 58 60 66 68 74 71 73 72 71 71 69 78 99 110 110 112 120 127 138 143 140 133 130 128 128 130 125 120 132 137 133 130 127 127 120 113 94
80 76 70 62 53 42 45 47 45 49 50 51 47 45 49 56 66 70 74 75 72 71 70 72 88 100 103 105 104 116 136 144 143 134 131 132 135 133 128 125 132 140 140 139 139 142 134 124 109
80 71 64 53 40 36 38 43 40 38 34 38 38 43 41 44 51 52 62 70 73 69 66 69 76 86 97 95 92 104 133 143 145 127 115 109 121 137 133 141 139 143 147 148 145 147 140 134 136
76 69 59 48 34 31 34 36 34 28 26 28 31 38 38 40 45 45 44 54 64 63 56 59 66 73 78 88 80 97 157 163 170 146 143 137 140 137 129 130 147 163 160 160 160 166 165 157 162
72 70 62 43 32 27 30 32 28 30 28 25 28 35 40 42 40 40 31 36 51 58 48 40 46 64 57 38 39 73 205 211 203 190 184 208 171 148 164 156 142 167 181 193 203 208 217 206 192
73 67 63 37 29 26 26 28 29 28 30 21 23 26 38 34 33 33 29 26 35 39 34 32 37 31 17 2 354 319 248 235 237 231 217 216 213 215 213 217 213 231 247 252 262 244 229 224 211
74 69 68 39 22 22 19 20 24 26 26 25 26 23 27 27 26 24 21 13 11 15 4 7 10 2 350 337 340 322 271 256 254 256 250 244 242 249 262 258 252 251 252 265 274 267 252 244 239
68 62 60 44 28 24 15 16 17 20 23 24 22 20 19 22 22 23 20 14 9 3 356 348 340 329 326 323 327 324 305 283 259 276 272 265 257 261 274 274 270 270 269 274 278 271 270 272 264
65 60 54 43 31 30 18 18 20 20 15 24 21 18 18 20 22 20 15 14 12 6 355 347 340 338 336 330 324 321 316 315 296 286 278 287 286 281 288 278 277 288 289 286 285 282 281 275 265
68 57 38 38 26 31 29 26 21 14 14 22 23 21 19 17 18 17 14 8 7 4 353 355 351 346 343 340 335 334 329 326 313 296 288 288 289 282 288 295 290 294 293 292 287 283 275 267 260
70 55 34 30 23 25 30 27 23 13 14 15 11 18 22 22 18 14 11 5 4 3 359 355 356 353 349 344 349 346 335 328 323 304 287 284 285 282 292 301 302 293 290 292 292 286 279 275 268
72 62 36 28 17 13 23 23 14 10 12 10 8 12 20 23 18 12 9 4 1 0 360 356 355 353 351 347 349 344 333 333 334 313 295 297 294 292 288 283 287 288 291 292 284 281 277 275 272
118 79 39 19 6 9 21 13 15 14 11 11 10 9 16 18 17 10 6 5 358 352 354 352 349 349 347 348 345 344 342 331 327 327 318 309 308 308 303 291 287 285 287 288 283 280 273 267 270
106 77 38 15 0 0 9 2 11 12 3 5 5 6 6 4 4 1 357 356 356 355 354 352 349 345 344 344 344 342 343 343 332 328 323 320 312 309 304 300 304 304 295 293 291 288 278 274 274
60 32 11 352 344 346 2 351 355 2 0 355 357 358 0 355 353 356 353 350 352 352 352 350 350 348 345 344 346 346 347 345 338 334 330 326 318 311 307 305 304 302 298 298 292 288 288 278 272
5 335 328 325 334 342 351 341 346 348 354 352 351 350 350 352 349 350 354 355 353 349 346 344 345 345 346 344 344 345 343 342 341 338 332 328 323 316 312 308 306 303 301 300 297 291 289 282 279
305 287 305 316 314 323 327 331 337 337 343 349 348 349 344 343 345 347 351 354 353 351 345 340 339 339 342 344 340 341 341 339 335 331 327 323 319 312 309 310 308 310 308 305 302 298 297 292 285
258 266 272 288 294 303 314 319 323 330 332 338 343 349 346 340 338 340 339 342 345 345 344 340 336 332 332 335 337 337 339 338 334 327 323 320 321 319 318 315 311 308 305 304 304 296 292 288 285
252 264 274 277 281 294 300 316 315 319 323 329 338 342 339 335 334 335 334 336 341 344 345 342 342 337 333 331 330 332 335 334 333 335 333 330 331 328 325 325 320 313 309 305 302 293 288 287 289
244 253 265 268 273 285 300 308 316 312 310 318 325 328 332 334 333 333 329 330 334 337 339 338 337 337 334 334 333 333 333 331 333 334 335 330 327 324 323 325 324 316 308 307 304 300 292 288 289
251 255 259 259 266 274 285 294 301 302 304 313 316 324 330 336 333 333 327 325 329 333 334 335 336 336 334 333 331 333 334 333 330 330 331 329 326 323 322 324 323 317 313 309 303 300 295 291 292
241 245 254 255 258 264 271 276 287 297 300 305 312 316 322 327 325 324 326 326 328 331 333 332 331 331 330 328 327 327 326 327 327 328 330 329 329 327 322 319 319 319 316 311 306 304 300 293 292
245 250 257 265 265 266 263 270 274 278 286 295 302 306 310 311 313 315 318 321 324 326 329 330 327 325 325 323 321 320 320 321 322 323 325 326 326 326 322 320 319 315 310 308 308 305 302 297 294
247 249 260 269 265 272 272 270 276 278 280 283 290 298 303 303 306 308 309 312 317 321 324 324 322 320 321 319 319 318 316 317 319 318 318 320 321 321 321 318 317 312 307 304 306 304 301 298 294
247 246 254 263 265 274 278 273 278 285 281 279 279 288 295 296 299 301 303 306 309 313 317 318 318 318 318 314 312 315 315 313 314 315 315 316 316 316 318 318 315 312 307 302 301 303 300 296 292
251 248 248 258 258 264 262 270 276 279 279 279 282 285 290 293 293 296 301 302 304 306 309 311 314 317 317 313 308 309 310 312 311 312 312 313 313 314 316 316 313 311 307 302 298 297 298 296 292
251 250 249 254 256 260 261 263 264 268 272 276 281 284 288 289 292 294 296 298 299 301 303 306 310 313 314 312 309 309 308 309 308 309 310 310 312 315 315 313 313 309 306 303 300 298 296 294 292
250 249 248 249 250 256 264 266 266 271 273 272 274 278 282 285 291 293 293 295 295 296 298 302 306 307 307 307 308 308 306 308 308 307 308 308 309 310 310 309 308 306 304 304 303 301 298 298 294
248 247 247 252 256 257 260 263 263 268 272 272 271 273 278 283 287 290 290 290 292 293 295 298 301 303 303 304 304 304 304 305 305 304 304 305 306 306 306 306 306 304 303 303 303 302 301 299 296
Height
5898 5898 5898 5898 5897 5898 5898 5898 5897 5896 5895 5895 5894 5893 5892 5892 5893 5894 5891 5890 5890 5888 5886 5884 5886 5888 5889 5889 5889 5890 5890 5890 5891 5891 5891 5892 5892 5892 5893 5893 5894 5895 5895 5896 5896 5897 5897 5898 5898
5901 5901 5900 5899 5899 5900 5901 5900 5899 5898 5897 5896 5895 5895 5894 5894 5893 5893 5892 5892 5891 5890 5888 5887 5888 5889 5890 5891 5891 5891 5891 5892 5892 5892 5892 5893 5893 5893 5894 5894 5895 5895 5896 5897 5897 5898 5898 5899 5899
5904 5903 5902 5902 5903 5903 5903 5902 5901 5900 5899 5898 5897 5897 5896 5895 5895 5894 5894 5893 5893 5892 5891 5890 5891 5892 5892 5892 5892 5892 5892 5893 5893 5893 5893 5893 5894 5894 5895 5895 5896 5896 5897 5897 5898 5898 5899 5899 5900
5906 5904 5904 5906 5906 5906 5905 5904 5903 5902 5901 5899 5899 5898 5897 5896 5896 5895 5895 5895 5894 5894 5893 5893 5893 5893 5893 5893 5893 5894 5893 5894 5894 5894 5894 5895 5895 5895 5895 5896 5896 5897 5897 5898 5898 5899 5899 5900 5900
5907 5906 5908 5909 5909 5908 5907 5906 5905 5904 5903 5901 5900 5899 5898 5898 5897 5897 5896 5896 5896 5896 5895 5895 5895 5895 5895 5895 5895 5895 5895 5895 5895 5895 5895 5895 5896 5896 5896 5896 5897 5897 5898 5898 5898 5899 5899 5900 5900
5909 5910 5912 5913 5912 5911 5909 5908 5906 5905 5904 5903 5902 5900 5900 5899 5899 5898 5897 5897 5897 5897 5896 5896 5896 5896 5896 5896 5896 5895 5896 5896 5896 5896 5896 5896 5896 5897 5897 5897 5897 5897 5898 5898 5898 5899 5899 5900 5900
5912 5911 5915 5916 5915 5913 5912 5910 5908 5907 5906 5904 5903 5901 5900 5901 5900 5899 5899 5898 5898 5898 5898 5897 5897 5897 5897 5896 5896 5896 5896 5896 5896 5896 5897 5897 5897 5897 5897 5897 5897 5897 5898 5898 5898 5899 5899 5899 5900
5915 5915 5917 5918 5917 5915 5914 5912 5910 5909 5907 5906 5905 5903 5902 5902 5901 5900 5900 5899 5899 5899 5899 5899 5898 5898 5897 5897 5897 5897 5897 5897 5897 5897 5897 5897 5897 5897 5897 5897 5897 5897 5898 5898 5898 5898 5898 5899 5899
5918 5920 5920 5920 5919 5918 5916 5914 5912 5911 5909 5907 5906 5905 5904 5903 5902 5902 5901 5901 5900 5900 5900 5899 5899 5899 5898 5898 5897 5897 5897 5897 5897 5897 5897 5897 5897 5897 5897 5897 5897 5897 5898 5897 5898 5898 5898 5898 5898
5921 5922 5922 5922 5920 5919 5917 5916 5914 5912 5911 5909 5908 5907 5905 5904 5903 5903 5902 5902 5901 5901 5901 5900 5900 5899 5899 5899 5898 5897 5897 5897 5897 5897 5897 5897 5897 5897 5897 5897 5897 5897 5897 5897 5897 5897 5897 5897 5898
5923 5924 5923 5922 5921 5920 5919 5917 5916 5914 5913 5911 5909 5908 5907 5906 5905 5904 5904 5903 5902 5902 5902 5901 5901 5900 5899 5899 5898 5898 5897 5897 5897 5897 5897 5897 5897 5897 5897 5897 5897 5896 5896 5896 5896 5896 5896 5897 5897
5926 5926 5925 5924 5922 5921 5920 5919 5917 5916 5914 5912 5910 5909 5908 5907 5906 5905 5905 5904 5903 5903 5903 5902 5901 5901 5900 5899 5899 5898 5897 5897 5897 5897 5896 5896 5896 5897 5897 5896 5896 5896 5895 5895 5895 5895 5895 5896 5896
5928 5928 5927 5925 5924 5922 5921 5920 5918 5917 5915 5913 5912 5910 5909 5908 5907 5906 5906 5905 5904 5903 5903 5902 5902 5901 5900 5899 5899 5898 5898 5897 5897 5896 5896 5896 5896 5896 5896 5896 5895 5895 5895 5894 5894 5894 5894 5895 5895
5927 5928 5928 5927 5926 5924 5922 5921 5918 5918 5916 5914 5913 5911 5910 5909 5909 5908 5907 5906 5905 5905 5904 5903 5903 5902 5901 5900 5899 5898 5897 5897 5896 5896 5895 5895 5895 5895 5895 5894 5894 5894 5893 5893 5893 5893 5893 5893 5894
5927 5927 5928 5928 5927 5926 5924 5922 5919 5919 5918 5916 5914 5913 5912 5911 5910 5909 5908 5907 5906 5906 5905 5904 5903 5902 5901 5900 5899 5898 5897 5896 5896 5895 5895 5894 5894 5894 5894 5893 5893 5892 5892 5892 5891 5891 5891 5892 5892
5927 5928 5929 5930 5929 5927 5927 5924 5921 5919 5918 5917 5915 5914 5913 5912 5911 5910 5909 5908 5907 5906 5905 5904 5903 5902 5901 5900 5899 5898 5897 5896 5895 5895 5894 5894 5893 5893 5892 5892 5892 5891 5891 5890 5890 5890 5890 5890 5891
5928 5930 5931 5931 5930 5929 5927 5925 5923 5921 5919 5917 5916 5914 5913 5912 5911 5910 5910 5909 5908 5907 5906 5904 5903 5902 5901 5900 5899 5898 5897 5896 5895 5894 5894 5893 5892 5892 5891 5891 5891 5890 5889 5889 5889 5889 5889 5889 5889
5930 5930 5931 5932 5931 5930 5928 5926 5924 5922 5920 5918 5916 5914 5913 5912 5912 5911 5910 5909 5908 5907 5906 5905 5903 5902 5901 5900 5899 5898 5897 5896 5895 5894 5893 5892 5891 5891 5890 5890 5889 5889 5888 5888 5887 5887 5887 5887 5887
5930 5931 5932 5932 5932 5930 5929 5927 5924 5923 5921 5919 5916 5915 5914 5912 5912 5911 5910 5909 5908 5907 5906 5904 5903 5902 5901 5900 5899 5898 5897 5896 5895 5894 5893 5891 5890 5890 5889 5888 5888 5887 5886 5886 5885 5885 5886 5886 5886
5929 5929 5930 5931 5931 5930 5928 5927 5925 5923 5921 5920 5918 5916 5914 5913 5912 5911 5910 5909 5908 5907 5906 5904 5903 5901 5900 5899 5898 5897 5897 5895 5894 5893 5892 5891 5890 5889 5888 5887 5886 5884 5884 5883 5883 5883 5884 5884 5884
5928 5929 5930 5930 5929 5929 5928 5926 5925 5923 5921 5919 5918 5917 5915 5913 5911 5911 5910 5909 5908 5907 5905 5904 5902 5901 5900 5899 5897 5897 5896 5895 5894 5893 5892 5891 5889 5888 5887 5885 5884 5883 5882 5881 5881 5881 5881 5881 5881
5926 5927 5927 5927 5927 5927 5928 5927 5925 5923 5921 5919 5917 5916 5915 5913 5911 5910 5909 5908 5907 5906 5905 5903 5902 5900 5899 5898 5897 5896 5895 5894 5893 5892 5891 5890 5888 5887 5886 5884 5883 5881 5880 5880 5879 5879 5878 5879 5879
5923 5924 5924 5924 5924 5924 5925 5925 5924 5922 5920 5918 5916 5914 5913 5912 5911 5909 5908 5907 5906 5905 5904 5902 5901 5900 5899 5897 5896 5895 5894 5893 5892 5891 5890 5888 5887 5886 5884 5883 5881 5880 5878 5877 5877 5876 5876 5876 5876
5920 5921 5921 5921 5922 5922 5923 5923 5922 5920 5919 5917 5915 5913 5912 5911 5909 5907 5906 5906 5905 5904 5902 5901 5900 5899 5897 5896 5895 5894 5893 5892 5891 5890 5889 5887 5886 5884 5883 5881 5880 5878 5877 5876 5875 5874 5873 5873 5872
5917 5919 5919 5919 5919 5919 5920 5921 5921 5918 5918 5916 5914 5912 5911 5910 5908 5906 5905 5904 5903 5902 5901 5900 5898 5897 5895 5894 5893 5892 5891 5890 5889 5888 5887 5885 5884 5882 5881 5879 5877 5876 5874 5873 5872 5871 5870 5869 5869
5913 5915 5917 5918 5918 5918 5918 5918 5917 5916 5915 5913 5912 5911 5909 5908 5906 5905 5903 5902 5901 5900 5899 5898 5896 5895 5893 5892 5891 5890 5889 5888 5887 5885 5884 5883 5881 5880 5878 5877 5875 5873 5871 5870 5869 5867 5866 5865 5865
5909 5911 5914 5915 5914 5915 5915 5915 5914 5913 5912 5910 5909 5909 5907 5905 5904 5902 5901 5900 5899 5898 5897 5896 5894 5893 5891 5890 5888 5887 5886 5885 5884 5882 5881 5880 5878 5877 5875 5874 5872 5870 5868 5866 5865 5863 5862 5861 5860
5905 5907 5910 5911 5911 5911 5912 5912 5911 5909 5908 5907 5906 5905 5904 5902 5901 5900 5899 5897 5896 5896 5894 5893 5892 5890 5889 5887 5886 5885 5884 5883 5881 5880 5878 5877 5875 5873 5872 5870 5868 5866 5864 5862 5860 5859 5857 5856 5855
5902 5903 5904 5905 5906 5907 5908 5910 5906 5906 5904 5903 5902 5900 5900 5899 5898 5897 5895 5894 5893 5892 5891 5890 5889 5888 5886 5885 5884 5882 5881 5879 5878 5876 5875 5873 5871 5869 5867 5866 5864 5862 5860 5858 5856 5854 5852 5851 5849
5897 5898 5900 5902 5901 5902 5902 5905 5900 5901 5899 5898 5896 5896 5894 5894 5894 5893 5892 5891 5890 5889 5888 5886 5886 5884 5883 5882 5880 5878 5877 5875 5874 5872 5870 5869 5867 5865 5863 5861 5859 5857 5855 5853 5851 5849 5847 5846 5845